Location: ????????
(54.8751°N, 38.5756°E)
Time: 12:46:12
(UTC+00:00)

Cosmos 1371 Rocket - Pass Details

Date: 14 April 2024
Orbit: 752 x 787 km, 74.0° (Epoch: 18 May)

Event Time Altitude Azimuth Distance (km) Brightness Sun altitude
Rises 01:12:41 0° 330° (NNW) 3,232 7.3 -10.2°
Reaches altitude 10° 01:15:05 10° 327° (NNW) 2,307 6.5 -9.9°
Maximum altitude 01:20:12 59° 250° (WSW) 888 4.0 -9.2°
Drops below altitude 10° 01:25:21 10° 171° (S) 2,314 6.3 -8.6°
Sets 01:27:46 0° 168° (SSE) 3,243 7.1 -8.3°
